Time,TemperatureF,DewpointF,PressureIn,WindDirection,WindDirectionDegrees,WindSpeedMPH,WindSpeedGustMPH,Humidity,HourlyPrecipIn,Conditions,Clouds,dailyrainin,SoftwareType,DateUTC
2013-03-17 00:01:00,19.0,9.0,29.91,WSW,247,9.0,9.0,68,0.00,,,0.00,TxWx,2013-03-17 04:01:00,
2013-03-17 00:02:00,19.0,10.0,29.91,WNW,292,9.0,9.0,68,0.00,,,0.00,TxWx,2013-03-17 04:02:00,
2013-03-17 00:03:00,19.0,10.0,29.91,West,270,5.0,9.0,68,0.00,,,0.00,TxWx,2013-03-17 04:03:00,
2013-03-17 00:04:00,22.0,13.0,29.74,SW,225,12.0,12.0,71,0.00,,,0.00,TxWx,2013-03-17 04:04:00,
2013-03-17 00:09:00,22.0,13.0,29.74,West,270,8.0,8.0,71,0.00,,,0.00,TxWx,2013-03-17 04:09:00,
2013-03-17 00:15:00,22.0,12.0,29.74,WSW,247,8.0,10.0,72,0.00,,,0.00,TxWx,2013-03-17 04:15:00,
2013-03-17 00:20:00,22.0,13.0,29.74,West,270,9.0,10.0,72,0.00,,,0.00,TxWx,2013-03-17 04:20:00,
2013-03-17 00:25:00,22.0,13.0,29.74,West,270,10.0,10.0,72,0.00,,,0.00,TxWx,2013-03-17 04:25:00,
2013-03-17 00:30:00,22.0,13.0,29.74,WSW,247,14.0,15.0,72,0.00,,,0.00,TxWx,2013-03-17 04:30:00,
2013-03-17 00:36:00,22.0,13.0,29.74,SW,225,13.0,13.0,72,0.00,,,0.00,TxWx,2013-03-17 04:36:00,
2013-03-17 00:41:00,22.0,13.0,29.75,WSW,247,9.0,11.0,72,0.00,,,0.00,TxWx,2013-03-17 04:41:00,
2013-03-17 00:46:00,21.0,13.0,29.75,WSW,247,7.0,10.0,73,0.00,,,0.00,TxWx,2013-03-17 04:46:00,
2013-03-17 00:47:00,21.0,10.0,29.92,West,270,7.0,8.0,64,0.00,,,0.00,TxWx,2013-03-17 04:47:00,
2013-03-17 00:48:00,20.0,8.0,29.92,SW,225,8.0,8.0,63,0.00,,,0.00,TxWx,2013-03-17 04:48:00,
2013-03-17 00:49:00,21.0,9.0,29.92,WSW,247,6.0,10.0,62,0.00,,,0.00,TxWx,2013-03-17 04:49:00,
2013-03-17 00:50:00,21.0,9.0,29.92,SW,225,5.0,6.0,63,0.00,,,0.00,TxWx,2013-03-17 04:50:00,
2013-03-17 00:51:00,21.0,13.0,29.74,WSW,247,10.0,13.0,73,0.00,,,0.00,TxWx,2013-03-17 04:51:00,
2013-03-17 00:56:00,21.0,13.0,29.74,SW,225,10.0,11.0,73,0.00,,,0.00,TxWx,2013-03-17 04:56:00,
2013-03-17 01:01:00,21.0,13.0,29.74,West,270,8.0,13.0,73,0.00,,,0.00,TxWx,2013-03-17 05:01:00,
2013-03-17 01:06:00,21.0,13.0,29.75,SW,225,11.0,11.0,73,0.00,,,0.00,TxWx,2013-03-17 05:06:00,
2013-03-17 01:11:00,21.0,13.0,29.74,SW,225,7.0,8.0,73,0.00,,,0.00,TxWx,2013-03-17 05:11:00,
2013-03-17 01:16:00,21.0,13.0,29.74,WSW,247,9.0,10.0,73,0.00,,,0.00,TxWx,2013-03-17 05:16:00,
2013-03-17 01:21:00,21.0,13.0,29.74,WSW,247,10.0,11.0,73,0.00,,,0.00,TxWx,2013-03-17 05:21:00,
2013-03-17 01:26:00,22.0,10.0,29.92,SW,225,12.0,14.0,61,0.00,,,0.00,TxWx,2013-03-17 05:26:00,
2013-03-17 01:27:00,22.0,9.0,29.92,SW,225,10.0,11.0,61,0.00,,,0.00,TxWx,2013-03-17 05:27:00,
2013-03-17 01:28:00,22.0,9.0,29.92,SW,225,6.0,11.0,61,0.00,,,0.00,TxWx,2013-03-17 05:28:00,
2013-03-17 01:29:00,22.0,9.0,29.92,SW,225,8.0,9.0,60,0.00,,,0.00,TxWx,2013-03-17 05:29:00,
2013-03-17 01:30:00,21.0,12.0,29.74,SW,225,8.0,8.0,72,0.00,,,0.00,TxWx,2013-03-17 05:30:00,
2013-03-17 01:35:00,21.0,12.0,29.74,WNW,292,5.0,8.0,72,0.00,,,0.00,TxWx,2013-03-17 05:35:00,
2013-03-17 01:36:00,22.0,9.0,29.93,SSW,202,5.0,6.0,60,0.00,,,0.00,TxWx,2013-03-17 05:36:00,
2013-03-17 01:37:00,22.0,9.0,29.93,SW,225,5.0,9.0,60,0.00,,,0.00,TxWx,2013-03-17 05:37:00,
2013-03-17 01:38:00,22.0,9.0,29.92,WSW,247,7.0,9.0,60,0.00,,,0.00,TxWx,2013-03-17 05:38:00,
2013-03-17 01:40:00,20.0,11.0,29.74,West,270,5.0,10.0,71,0.00,,,0.00,TxWx,2013-03-17 05:40:00,
2013-03-17 01:46:00,20.0,11.0,29.75,WSW,247,7.0,9.0,72,0.00,,,0.00,TxWx,2013-03-17 05:46:00,
2013-03-17 01:51:00,20.0,11.0,29.75,West,270,8.0,13.0,71,0.00,,,0.00,TxWx,2013-03-17 05:51:00,
2013-03-17 01:52:00,24.0,5.0,29.92,West,270,11.0,16.0,45,0.00,,,0.00,TxWx,2013-03-17 05:52:00,
2013-03-17 01:53:00,24.0,4.0,29.93,NW,315,13.0,16.0,45,0.00,,,0.00,TxWx,2013-03-17 05:53:00,
2013-03-17 01:56:00,20.0,11.0,29.75,West,270,9.0,10.0,71,0.00,,,0.00,TxWx,2013-03-17 05:56:00,
2013-03-17 02:01:00,20.0,11.0,29.75,SW,225,6.0,8.0,71,0.00,,,0.00,TxWx,2013-03-17 06:01:00,
2013-03-17 02:06:00,20.0,11.0,29.75,SSW,202,7.0,10.0,71,0.00,,,0.00,TxWx,2013-03-17 06:06:00,
2013-03-17 02:15:00,20.0,11.0,29.76,SSW,202,8.0,8.0,70,0.00,,,0.00,TxWx,2013-03-17 06:15:00,
2013-03-17 02:20:00,19.0,10.0,29.76,West,270,8.0,10.0,69,0.00,,,0.00,TxWx,2013-03-17 06:20:00,
2013-03-17 02:21:00,25.0,1.0,29.93,SW,225,8.0,11.0,37,0.00,,,0.00,TxWx,2013-03-17 06:21:00,
2013-03-17 02:22:00,25.0,1.0,29.93,NW,315,11.0,12.0,37,0.00,,,0.00,TxWx,2013-03-17 06:22:00,
2013-03-17 02:23:00,25.0,1.0,29.93,West,270,14.0,14.0,37,0.00,,,0.00,TxWx,2013-03-17 06:23:00,
2013-03-17 02:24:00,25.0,1.0,29.93,West,270,11.0,11.0,37,0.00,,,0.00,TxWx,2013-03-17 06:24:00,
2013-03-17 02:25:00,20.0,10.0,29.76,WSW,247,6.0,9.0,69,0.00,,,0.00,TxWx,2013-03-17 06:25:00,
2013-03-17 02:30:00,19.0,10.0,29.76,WNW,292,6.0,13.0,69,0.00,,,0.00,TxWx,2013-03-17 06:30:00,
2013-03-17 02:35:00,19.0,10.0,29.76,West,270,8.0,12.0,70,0.00,,,0.00,TxWx,2013-03-17 06:35:00,
2013-03-17 02:40:00,19.0,10.0,29.76,SSW,202,10.0,10.0,70,0.00,,,0.00,TxWx,2013-03-17 06:40:00,
2013-03-17 02:46:00,19.0,10.0,29.77,WSW,247,8.0,8.0,70,0.00,,,0.00,TxWx,2013-03-17 06:46:00,
2013-03-17 02:47:00,26.0,4.0,29.94,SW,225,8.0,14.0,40,0.00,,,0.00,TxWx,2013-03-17 06:47:00,
2013-03-17 02:48:00,25.0,3.0,29.94,SW,225,9.0,11.0,40,0.00,,,0.00,TxWx,2013-03-17 06:48:00,
2013-03-17 02:49:00,25.0,3.0,29.94,WSW,247,13.0,13.0,41,0.00,,,0.00,TxWx,2013-03-17 06:49:00,
2013-03-17 02:50:00,25.0,4.0,29.94,SW,225,10.0,10.0,41,0.00,,,0.00,TxWx,2013-03-17 06:50:00,
2013-03-17 02:51:00,18.0,9.0,29.77,West,270,5.0,7.0,70,0.00,,,0.00,TxWx,2013-03-17 06:51:00,
2013-03-17 02:56:00,18.0,9.0,29.78,SW,225,9.0,12.0,70,0.00,,,0.00,TxWx,2013-03-17 06:56:00,
2013-03-17 02:57:00,25.0,4.0,29.94,NW,315,11.0,12.0,42,0.00,,,0.00,TxWx,2013-03-17 06:57:00,
2013-03-17 02:58:00,26.0,5.0,29.94,SW,225,8.0,10.0,42,0.00,,,0.00,TxWx,2013-03-17 06:58:00,
2013-03-17 02:59:00,25.0,4.0,29.94,WSW,247,6.0,8.0,42,0.00,,,0.00,TxWx,2013-03-17 06:59:00,
2013-03-17 03:00:00,25.0,4.0,29.94,SW,225,12.0,13.0,42,0.00,,,0.00,TxWx,2013-03-17 07:00:00,
2013-03-17 03:01:00,18.0,9.0,29.78,SW,225,6.0,8.0,71,0.00,,,0.00,TxWx,2013-03-17 07:01:00,
2013-03-17 03:06:00,18.0,9.0,29.78,WSW,247,8.0,12.0,71,0.00,,,0.00,TxWx,2013-03-17 07:06:00,
2013-03-17 03:11:00,18.0,9.0,29.78,SW,225,6.0,8.0,71,0.00,,,0.00,TxWx,2013-03-17 07:11:00,
2013-03-17 03:19:00,18.0,9.0,29.78,WSW,247,10.0,10.0,72,0.00,,,0.00,TxWx,2013-03-17 07:19:00,
2013-03-17 03:24:00,18.0,9.0,29.78,WSW,247,7.0,8.0,72,0.00,,,0.00,TxWx,2013-03-17 07:24:00,
2013-03-17 03:29:00,18.0,9.0,29.78,West,270,8.0,9.0,72,0.00,,,0.00,TxWx,2013-03-17 07:29:00,
2013-03-17 03:34:00,17.0,9.0,29.78,WSW,247,7.0,7.0,72,0.00,,,0.00,TxWx,2013-03-17 07:34:00,
2013-03-17 03:39:00,17.0,9.0,29.78,West,270,7.0,11.0,72,0.00,,,0.00,TxWx,2013-03-17 07:39:00,
2013-03-17 03:44:00,17.0,9.0,29.79,WSW,247,5.0,13.0,73,0.00,,,0.00,TxWx,2013-03-17 07:44:00,
2013-03-17 03:49:00,17.0,9.0,29.79,SW,225,8.0,8.0,73,0.00,,,0.00,TxWx,2013-03-17 07:49:00,
2013-03-17 03:54:00,17.0,9.0,29.79,SW,225,10.0,11.0,73,0.00,,,0.00,TxWx,2013-03-17 07:54:00,
2013-03-17 03:56:00,27.0,3.0,29.95,SW,225,13.0,13.0,38,0.00,,,0.00,TxWx,2013-03-17 07:56:00,
2013-03-17 03:57:00,27.0,3.0,29.94,West,270,8.0,12.0,37,0.00,,,0.00,TxWx,2013-03-17 07:57:00,
2013-03-17 03:58:00,27.0,3.0,29.94,West,270,10.0,11.0,36,0.00,,,0.00,TxWx,2013-03-17 07:58:00,
2013-03-17 03:59:00,17.0,9.0,29.79,West,270,5.0,10.0,74,0.00,,,0.00,TxWx,2013-03-17 07:59:00,
2013-03-17 04:00:00,27.0,2.0,29.94,WNW,292,10.0,12.0,36,0.00,,,0.00,TxWx,2013-03-17 08:00:00,
2013-03-17 04:04:00,17.0,9.0,29.79,SW,225,9.0,9.0,74,0.00,,,0.00,TxWx,2013-03-17 08:04:00,
2013-03-17 04:09:00,17.0,9.0,29.80,SW,225,10.0,11.0,75,0.00,,,0.00,TxWx,2013-03-17 08:09:00,
2013-03-17 04:15:00,17.0,9.0,29.80,SW,225,5.0,7.0,75,0.00,,,0.00,TxWx,2013-03-17 08:15:00,
2013-03-17 04:20:00,17.0,9.0,29.80,West,270,6.0,10.0,75,0.00,,,0.00,TxWx,2013-03-17 08:20:00,
2013-03-17 04:25:00,16.0,9.0,29.80,West,270,5.0,8.0,76,0.00,,,0.00,TxWx,2013-03-17 08:25:00,
2013-03-17 04:30:00,16.0,9.0,29.80,West,270,5.0,7.0,76,0.00,,,0.00,TxWx,2013-03-17 08:30:00,
2013-03-17 04:35:00,16.0,9.0,29.79,West,270,8.0,8.0,76,0.00,,,0.00,TxWx,2013-03-17 08:35:00,
2013-03-17 04:40:00,16.0,9.0,29.79,West,270,12.0,13.0,76,0.00,,,0.00,TxWx,2013-03-17 08:40:00,
2013-03-17 04:46:00,16.0,9.0,29.79,WNW,292,5.0,6.0,76,0.00,,,0.00,TxWx,2013-03-17 08:46:00,
2013-03-17 04:51:00,16.0,9.0,29.79,WSW,247,4.0,5.0,76,0.00,,,0.00,TxWx,2013-03-17 08:51:00,
2013-03-17 04:56:00,16.0,9.0,29.79,West,270,8.0,9.0,76,0.00,,,0.00,TxWx,2013-03-17 08:56:00,
2013-03-17 05:01:00,16.0,9.0,29.79,WNW,292,6.0,6.0,76,0.00,,,0.00,TxWx,2013-03-17 09:01:00,
2013-03-17 05:06:00,16.0,9.0,29.80,West,270,6.0,8.0,76,0.00,,,0.00,TxWx,2013-03-17 09:06:00,
2013-03-17 05:11:00,16.0,9.0,29.80,WNW,292,6.0,6.0,76,0.00,,,0.00,TxWx,2013-03-17 09:11:00,
2013-03-17 05:16:00,16.0,9.0,29.80,West,270,5.0,6.0,76,0.00,,,0.00,TxWx,2013-03-17 09:16:00,
2013-03-17 05:21:00,16.0,9.0,29.80,West,270,7.0,8.0,76,0.00,,,0.00,TxWx,2013-03-17 09:21:00,
2013-03-17 05:26:00,16.0,8.0,29.80,WSW,247,5.0,7.0,75,0.00,,,0.00,TxWx,2013-03-17 09:26:00,
2013-03-17 05:31:00,16.0,8.0,29.80,West,270,6.0,8.0,75,0.00,,,0.00,TxWx,2013-03-17 09:31:00,
2013-03-17 05:32:00,28.0,2.0,29.96,WNW,292,14.0,14.0,34,0.00,,,0.00,TxWx,2013-03-17 09:32:00,
2013-03-17 05:33:00,28.0,1.0,29.96,WSW,247,13.0,17.0,33,0.00,,,0.00,TxWx,2013-03-17 09:33:00,
2013-03-17 05:34:00,28.0,1.0,29.96,NW,315,16.0,20.0,33,0.00,,,0.00,TxWx,2013-03-17 09:34:00,
2013-03-17 05:35:00,28.0,2.0,29.96,West,270,11.0,17.0,33,0.00,,,0.00,TxWx,2013-03-17 09:35:00,
2013-03-17 05:36:00,16.0,8.0,29.80,West,270,8.0,8.0,75,0.00,,,0.00,TxWx,2013-03-17 09:36:00,
2013-03-17 05:37:00,28.0,2.0,29.96,West,270,14.0,14.0,33,0.00,,,0.00,TxWx,2013-03-17 09:37:00,
2013-03-17 05:38:00,28.0,2.0,29.96,West,270,10.0,12.0,33,0.00,,,0.00,TxWx,2013-03-17 09:38:00,
2013-03-17 05:39:00,28.0,1.0,29.96,NW,315,13.0,13.0,33,0.00,,,0.00,TxWx,2013-03-17 09:39:00,
2013-03-17 05:40:00,28.0,1.0,29.96,WNW,292,10.0,10.0,33,0.00,,,0.00,TxWx,2013-03-17 09:40:00,
2013-03-17 05:41:00,16.0,8.0,29.80,WNW,292,5.0,6.0,74,0.00,,,0.00,TxWx,2013-03-17 09:41:00,
2013-03-17 05:46:00,16.0,8.0,29.80,NW,315,6.0,6.0,74,0.00,,,0.00,TxWx,2013-03-17 09:46:00,
2013-03-17 05:47:00,29.0,3.0,29.97,NW,315,10.0,11.0,34,0.00,,,0.00,TxWx,2013-03-17 09:47:00,
2013-03-17 05:52:00,16.0,8.0,29.80,WNW,292,3.0,5.0,74,0.00,,,0.00,TxWx,2013-03-17 09:52:00,
2013-03-17 05:56:00,29.0,3.0,29.96,WSW,247,7.0,11.0,34,0.00,,,0.00,TxWx,2013-03-17 09:56:00,
2013-03-17 05:57:00,16.0,8.0,29.79,WNW,292,3.0,4.0,73,0.00,,,0.00,TxWx,2013-03-17 09:57:00,
2013-03-17 05:58:00,29.0,2.0,29.96,SW,225,12.0,16.0,33,0.00,,,0.00,TxWx,2013-03-17 09:58:00,
2013-03-17 05:59:00,29.0,2.0,29.96,SW,225,15.0,17.0,33,0.00,,,0.00,TxWx,2013-03-17 09:59:00,
2013-03-17 06:02:00,15.0,8.0,29.79,NW,315,6.0,7.0,73,0.00,,,0.00,TxWx,2013-03-17 10:02:00,
2013-03-17 06:07:00,16.0,8.0,29.79,WNW,292,3.0,6.0,72,0.00,,,0.00,TxWx,2013-03-17 10:07:00,
2013-03-17 06:12:00,16.0,7.0,29.80,WNW,292,5.0,6.0,71,0.00,,,0.00,TxWx,2013-03-17 10:12:00,
2013-03-17 06:17:00,16.0,7.0,29.81,West,270,5.0,6.0,72,0.00,,,0.00,TxWx,2013-03-17 10:17:00,
2013-03-17 06:25:00,16.0,7.0,29.82,WSW,247,3.0,4.0,72,0.00,,,0.00,TxWx,2013-03-17 10:25:00,
2013-03-17 06:30:00,16.0,8.0,29.83,SW,225,6.0,6.0,72,0.00,,,0.00,TxWx,2013-03-17 10:30:00,
2013-03-17 06:35:00,15.0,7.0,29.83,SW,225,5.0,6.0,73,0.00,,,0.00,TxWx,2013-03-17 10:35:00,
2013-03-17 06:40:00,15.0,7.0,29.83,SW,225,9.0,9.0,74,0.00,,,0.00,TxWx,2013-03-17 10:40:00,
2013-03-17 06:45:00,15.0,8.0,29.84,West,270,6.0,8.0,76,0.00,,,0.00,TxWx,2013-03-17 10:45:00,
2013-03-17 06:50:00,15.0,8.0,29.84,West,270,6.0,7.0,77,0.00,,,0.00,TxWx,2013-03-17 10:50:00,
2013-03-17 06:51:00,29.0,2.0,29.98,WNW,292,13.0,14.0,33,0.00,,,0.00,TxWx,2013-03-17 10:51:00,
2013-03-17 06:52:00,29.0,2.0,29.98,SW,225,11.0,11.0,33,0.00,,,0.00,TxWx,2013-03-17 10:52:00,
2013-03-17 06:53:00,29.0,2.0,29.99,WSW,247,4.0,9.0,33,0.00,,,0.00,TxWx,2013-03-17 10:53:00,
2013-03-17 06:54:00,29.0,2.0,29.98,West,270,9.0,9.0,33,0.00,,,0.00,TxWx,2013-03-17 10:54:00,
2013-03-17 06:55:00,15.0,8.0,29.84,West,270,4.0,5.0,78,0.00,,,0.00,TxWx,2013-03-17 10:55:00,
2013-03-17 06:56:00,28.0,1.0,29.98,West,270,8.0,11.0,32,0.00,,,0.00,TxWx,2013-03-17 10:56:00,
2013-03-17 06:57:00,29.0,2.0,29.99,NW,315,7.0,9.0,33,0.00,,,0.00,TxWx,2013-03-17 10:57:00,
2013-03-17 06:58:00,29.0,2.0,29.98,SW,225,11.0,11.0,33,0.00,,,0.00,TxWx,2013-03-17 10:58:00,
2013-03-17 06:59:00,29.0,2.0,29.99,West,270,8.0,8.0,33,0.00,,,0.00,TxWx,2013-03-17 10:59:00,
2013-03-17 07:00:00,15.0,8.0,29.85,SW,225,5.0,7.0,78,0.00,,,0.00,TxWx,2013-03-17 11:00:00,
2013-03-17 07:01:00,29.0,2.0,29.99,SW,225,18.0,18.0,33,0.00,,,0.00,TxWx,2013-03-17 11:01:00,
2013-03-17 07:02:00,29.0,2.0,29.99,West,270,15.0,15.0,33,0.00,,,0.00,TxWx,2013-03-17 11:02:00,
2013-03-17 07:03:00,29.0,2.0,29.99,WSW,247,8.0,11.0,33,0.00,,,0.00,TxWx,2013-03-17 11:03:00,
2013-03-17 07:04:00,28.0,1.0,29.99,West,270,8.0,11.0,33,0.00,,,0.00,TxWx,2013-03-17 11:04:00,
2013-03-17 07:05:00,15.0,8.0,29.85,SW,225,8.0,8.0,78,0.00,,,0.00,TxWx,2013-03-17 11:05:00,
2013-03-17 07:11:00,15.0,8.0,29.85,SSW,202,7.0,7.0,78,0.00,,,0.00,TxWx,2013-03-17 11:11:00,
2013-03-17 07:16:00,15.0,8.0,29.85,SSW,202,4.0,5.0,78,0.00,,,0.00,TxWx,2013-03-17 11:16:00,
2013-03-17 07:21:00,16.0,9.0,29.86,SSW,202,4.0,5.0,78,0.00,,,0.00,TxWx,2013-03-17 11:21:00,
2013-03-17 07:26:00,15.0,8.0,29.86,SSW,202,5.0,5.0,78,0.00,,,0.00,TxWx,2013-03-17 11:26:00,
2013-03-17 07:31:00,16.0,9.0,29.86,SSW,202,5.0,5.0,78,0.00,,,0.00,TxWx,2013-03-17 11:31:00,
2013-03-17 07:36:00,16.0,9.0,29.87,SSW,202,5.0,5.0,77,0.00,,,0.00,TxWx,2013-03-17 11:36:00,
2013-03-17 07:45:00,16.0,9.0,29.86,SSW,202,5.0,6.0,76,0.00,,,0.00,TxWx,2013-03-17 11:45:00,
2013-03-17 07:50:00,16.0,8.0,29.86,SSE,157,3.0,5.0,76,0.00,,,0.00,TxWx,2013-03-17 11:50:00,
2013-03-17 07:55:00,15.0,8.0,29.87,South,180,6.0,6.0,77,0.00,,,0.00,TxWx,2013-03-17 11:55:00,
2013-03-17 08:00:00,16.0,9.0,29.86,SSE,157,5.0,6.0,77,0.00,,,0.00,TxWx,2013-03-17 12:00:00,
2013-03-17 08:01:00,28.0,2.0,30.00,West,270,9.0,13.0,34,0.00,,,0.00,TxWx,2013-03-17 12:01:00,
2013-03-17 08:05:00,16.0,9.0,29.86,South,180,5.0,6.0,77,0.00,,,0.00,TxWx,2013-03-17 12:05:00,
2013-03-17 08:06:00,28.0,2.0,30.00,SW,225,10.0,10.0,34,0.00,,,0.00,TxWx,2013-03-17 12:06:00,
2013-03-17 08:07:00,28.0,2.0,30.01,WSW,247,7.0,7.0,34,0.00,,,0.00,TxWx,2013-03-17 12:07:00,
2013-03-17 08:08:00,28.0,2.0,30.01,NW,315,6.0,8.0,34,0.00,,,0.00,TxWx,2013-03-17 12:08:00,
2013-03-17 08:09:00,28.0,2.0,30.01,WSW,247,10.0,13.0,34,0.00,,,0.00,TxWx,2013-03-17 12:09:00,
2013-03-17 08:10:00,16.0,9.0,29.87,SSW,202,9.0,9.0,77,0.00,,,0.00,TxWx,2013-03-17 12:10:00,
2013-03-17 08:15:00,17.0,10.0,29.87,SSW,202,6.0,7.0,76,0.00,,,0.00,TxWx,2013-03-17 12:15:00,
2013-03-17 08:16:00,28.0,3.0,30.01,WSW,247,5.0,7.0,36,0.00,,,0.00,TxWx,2013-03-17 12:16:00,
2013-03-17 08:17:00,28.0,4.0,30.01,West,270,8.0,8.0,37,0.00,,,0.00,TxWx,2013-03-17 12:17:00,
2013-03-17 08:18:00,28.0,4.0,30.01,SW,225,9.0,9.0,37,0.00,,,0.00,TxWx,2013-03-17 12:18:00,
2013-03-17 08:19:00,28.0,4.0,30.01,West,270,5.0,7.0,37,0.00,,,0.00,TxWx,2013-03-17 12:19:00,
2013-03-17 08:20:00,16.0,9.0,29.87,SW,225,10.0,10.0,76,0.00,,,0.00,TxWx,2013-03-17 12:20:00,
2013-03-17 08:26:00,16.0,9.0,29.87,SSW,202,7.0,10.0,77,0.00,,,0.00,TxWx,2013-03-17 12:26:00,
2013-03-17 08:31:00,16.0,9.0,29.88,SW,225,10.0,10.0,78,0.00,,,0.00,TxWx,2013-03-17 12:31:00,
2013-03-17 08:36:00,17.0,10.0,29.88,SW,225,6.0,8.0,79,0.00,,,0.00,TxWx,2013-03-17 12:36:00,
2013-03-17 08:41:00,17.0,11.0,29.88,SSW,202,13.0,14.0,79,0.00,,,0.00,TxWx,2013-03-17 12:41:00,
2013-03-17 08:46:00,17.0,11.0,29.88,West,270,6.0,12.0,80,0.00,,,0.00,TxWx,2013-03-17 12:46:00,
2013-03-17 08:51:00,17.0,11.0,29.89,SW,225,17.0,17.0,80,0.00,,,0.00,TxWx,2013-03-17 12:51:00,
2013-03-17 08:56:00,18.0,12.0,29.89,WNW,292,8.0,11.0,80,0.00,,,0.00,TxWx,2013-03-17 12:56:00,
2013-03-17 09:01:00,18.0,12.0,29.89,West,270,6.0,7.0,80,0.00,,,0.00,TxWx,2013-03-17 13:01:00,
2013-03-17 09:06:00,18.0,12.0,29.89,West,270,6.0,6.0,79,0.00,,,0.00,TxWx,2013-03-17 13:06:00,
2013-03-17 09:15:00,19.0,12.0,29.89,WSW,247,5.0,5.0,79,0.00,,,0.00,TxWx,2013-03-17 13:15:00,
2013-03-17 09:20:00,18.0,11.0,29.90,WSW,247,7.0,8.0,77,0.00,,,0.00,TxWx,2013-03-17 13:20:00,
2013-03-17 09:25:00,19.0,12.0,29.90,SW,225,8.0,9.0,76,0.00,,,0.00,TxWx,2013-03-17 13:25:00,
2013-03-17 09:26:00,25.0,4.0,30.05,SW,225,9.0,10.0,42,0.00,,,0.00,TxWx,2013-03-17 13:26:00,
2013-03-17 09:27:00,26.0,5.0,30.05,SW,225,10.0,15.0,42,0.00,,,0.00,TxWx,2013-03-17 13:27:00,
2013-03-17 09:28:00,25.0,4.0,30.05,SW,225,11.0,11.0,42,0.00,,,0.00,TxWx,2013-03-17 13:28:00,
2013-03-17 09:29:00,25.0,4.0,30.05,WSW,247,10.0,14.0,42,0.00,,,0.00,TxWx,2013-03-17 13:29:00,
2013-03-17 09:30:00,19.0,12.0,29.90,SW,225,8.0,10.0,76,0.00,,,0.00,TxWx,2013-03-17 13:30:00,
2013-03-17 09:31:00,25.0,4.0,30.05,WNW,292,8.0,13.0,42,0.00,,,0.00,TxWx,2013-03-17 13:31:00,
2013-03-17 09:32:00,26.0,5.0,30.05,West,270,7.0,14.0,42,0.00,,,0.00,TxWx,2013-03-17 13:32:00,
2013-03-17 09:33:00,25.0,4.0,30.05,West,270,10.0,11.0,42,0.00,,,0.00,TxWx,2013-03-17 13:33:00,
2013-03-17 09:35:00,19.0,11.0,29.90,SSW,202,9.0,14.0,75,0.00,,,0.00,TxWx,2013-03-17 13:35:00,
2013-03-17 09:41:00,19.0,11.0,29.91,West,270,6.0,6.0,74,0.00,,,0.00,TxWx,2013-03-17 13:41:00,
2013-03-17 09:46:00,20.0,12.0,29.91,WSW,247,8.0,8.0,74,0.00,,,0.00,TxWx,2013-03-17 13:46:00,
2013-03-17 09:51:00,19.0,10.0,29.91,SW,225,11.0,13.0,72,0.00,,,0.00,TxWx,2013-03-17 13:51:00,
2013-03-17 09:56:00,20.0,11.0,29.91,WNW,292,6.0,7.0,70,0.00,,,0.00,TxWx,2013-03-17 13:56:00,
2013-03-17 10:01:00,19.0,9.0,29.91,SW,225,10.0,11.0,69,0.00,,,0.00,TxWx,2013-03-17 14:01:00,
2013-03-17 10:06:00,20.0,10.0,29.91,SW,225,3.0,4.0,69,0.00,,,0.00,TxWx,2013-03-17 14:06:00,
2013-03-17 10:11:00,20.0,10.0,29.91,West,270,5.0,8.0,67,0.00,,,0.00,TxWx,2013-03-17 14:11:00,
2013-03-17 10:16:00,20.0,9.0,29.92,West,270,4.0,6.0,66,0.00,,,0.00,TxWx,2013-03-17 14:16:00,
2013-03-17 10:21:00,21.0,10.0,29.92,SW,225,4.0,5.0,65,0.00,,,0.00,TxWx,2013-03-17 14:21:00,
2013-03-17 10:26:00,20.0,9.0,29.92,WSW,247,8.0,8.0,65,0.00,,,0.00,TxWx,2013-03-17 14:26:00,
2013-03-17 10:31:00,20.0,9.0,29.92,West,270,6.0,8.0,65,0.00,,,0.00,TxWx,2013-03-17 14:31:00,
2013-03-17 10:36:00,21.0,10.0,29.92,West,270,6.0,6.0,64,0.00,,,0.00,TxWx,2013-03-17 14:36:00,
2013-03-17 10:41:00,21.0,9.0,29.92,West,270,7.0,11.0,63,0.00,,,0.00,TxWx,2013-03-17 14:41:00,
2013-03-17 10:50:00,21.0,9.0,29.92,West,270,8.0,8.0,63,0.00,,,0.00,TxWx,2013-03-17 14:50:00,
2013-03-17 10:55:00,21.0,9.0,29.92,WSW,247,6.0,6.0,63,0.00,,,0.00,TxWx,2013-03-17 14:55:00,
2013-03-17 11:00:00,21.0,9.0,29.92,West,270,6.0,6.0,63,0.00,,,0.00,TxWx,2013-03-17 15:00:00,
2013-03-17 11:05:00,21.0,9.0,29.92,SW,225,8.0,10.0,62,0.00,,,0.00,TxWx,2013-03-17 15:05:00,
2013-03-17 11:06:00,24.0,5.0,30.10,WNW,292,9.0,9.0,46,0.00,,,0.00,TxWx,2013-03-17 15:06:00,
2013-03-17 11:07:00,24.0,5.0,30.10,West,270,7.0,8.0,46,0.00,,,0.00,TxWx,2013-03-17 15:07:00,
2013-03-17 11:10:00,22.0,10.0,29.92,SW,225,10.0,10.0,62,0.00,,,0.00,TxWx,2013-03-17 15:10:00,
2013-03-17 11:11:00,23.0,4.0,30.10,NW,315,10.0,10.0,46,0.00,,,0.00,TxWx,2013-03-17 15:11:00,
2013-03-17 11:12:00,23.0,4.0,30.10,West,270,7.0,7.0,46,0.00,,,0.00,TxWx,2013-03-17 15:12:00,
2013-03-17 11:13:00,23.0,4.0,30.10,West,270,5.0,5.0,46,0.00,,,0.00,TxWx,2013-03-17 15:13:00,
2013-03-17 11:15:00,22.0,10.0,29.92,SSW,202,7.0,10.0,62,0.00,,,0.00,TxWx,2013-03-17 15:15:00,
2013-03-17 11:20:00,22.0,10.0,29.92,WSW,247,6.0,6.0,62,0.00,,,0.00,TxWx,2013-03-17 15:20:00,
2013-03-17 11:26:00,22.0,10.0,29.92,SSW,202,3.0,7.0,61,0.00,,,0.00,TxWx,2013-03-17 15:26:00,
2013-03-17 11:31:00,22.0,9.0,29.92,SW,225,7.0,9.0,61,0.00,,,0.00,TxWx,2013-03-17 15:31:00,
2013-03-17 11:36:00,22.0,9.0,29.93,West,270,5.0,9.0,60,0.00,,,0.00,TxWx,2013-03-17 15:36:00,
2013-03-17 11:37:00,23.0,4.0,30.12,WNW,292,3.0,5.0,46,0.00,,,0.00,TxWx,2013-03-17 15:37:00,
2013-03-17 11:38:00,23.0,4.0,30.12,NW,315,6.0,6.0,46,0.00,,,0.00,TxWx,2013-03-17 15:38:00,
2013-03-17 11:39:00,23.0,4.0,30.12,NW,315,6.0,7.0,46,0.00,,,0.00,TxWx,2013-03-17 15:39:00,
2013-03-17 11:40:00,23.0,4.0,30.12,NW,315,6.0,8.0,45,0.00,,,0.00,TxWx,2013-03-17 15:40:00,
2013-03-17 11:41:00,23.0,10.0,29.93,WNW,292,8.0,10.0,60,0.00,,,0.00,TxWx,2013-03-17 15:41:00,
2013-03-17 11:46:00,23.0,9.0,29.93,WSW,247,5.0,5.0,58,0.00,,,0.00,TxWx,2013-03-17 15:46:00,
2013-03-17 11:51:00,24.0,5.0,29.93,West,270,8.0,11.0,46,0.00,,,0.00,TxWx,2013-03-17 15:51:00,
2013-03-17 11:56:00,25.0,4.0,29.93,WNW,292,13.0,13.0,42,0.00,,,0.00,TxWx,2013-03-17 15:56:00,
2013-03-17 12:01:00,25.0,3.0,29.93,NNE,22,10.0,10.0,40,0.00,,,0.00,TxWx,2013-03-17 16:01:00,
2013-03-17 12:06:00,25.0,3.0,29.93,West,270,16.0,20.0,39,0.00,,,0.00,TxWx,2013-03-17 16:06:00,
2013-03-17 12:11:00,25.0,1.0,29.93,West,270,10.0,12.0,37,0.00,,,0.00,TxWx,2013-03-17 16:11:00,
2013-03-17 12:12:00,22.0,3.0,30.14,NNW,337,6.0,6.0,45,0.00,,,0.00,TxWx,2013-03-17 16:12:00,
2013-03-17 12:13:00,22.0,3.0,30.14,NNW,337,7.0,7.0,45,0.00,,,0.00,TxWx,2013-03-17 16:13:00,
2013-03-17 12:14:00,22.0,2.0,30.14,NW,315,8.0,8.0,44,0.00,,,0.00,TxWx,2013-03-17 16:14:00,
2013-03-17 12:15:00,22.0,2.0,30.14,NNW,337,6.0,8.0,44,0.00,,,0.00,TxWx,2013-03-17 16:15:00,
2013-03-17 12:16:00,25.0,1.0,29.93,WNW,292,18.0,18.0,37,0.00,,,0.00,TxWx,2013-03-17 16:16:00,
2013-03-17 12:25:00,25.0,1.0,29.93,West,270,6.0,9.0,37,0.00,,,0.00,TxWx,2013-03-17 16:25:00,
2013-03-17 12:30:00,26.0,3.0,29.93,NW,315,11.0,11.0,38,0.00,,,0.00,TxWx,2013-03-17 16:30:00,
2013-03-17 12:36:00,25.0,0.0,29.94,NW,315,15.0,17.0,36,0.00,,,0.00,TxWx,2013-03-17 16:36:00,
2013-03-17 12:41:00,25.0,0.0,29.93,West,270,9.0,10.0,36,0.00,,,0.00,TxWx,2013-03-17 16:41:00,
2013-03-17 12:46:00,26.0,3.0,29.94,SW,225,16.0,17.0,39,0.00,,,0.00,TxWx,2013-03-17 16:46:00,
2013-03-17 12:51:00,25.0,4.0,29.94,WNW,292,11.0,16.0,42,0.00,,,0.00,TxWx,2013-03-17 16:51:00,
2013-03-17 12:56:00,25.0,4.0,29.94,WSW,247,8.0,11.0,43,0.00,,,0.00,TxWx,2013-03-17 16:56:00,
2013-03-17 13:01:00,26.0,5.0,29.94,NW,315,7.0,11.0,42,0.00,,,0.00,TxWx,2013-03-17 17:01:00,
2013-03-17 13:02:00,21.0,2.0,30.14,North,0,6.0,7.0,46,0.00,,,0.00,TxWx,2013-03-17 17:02:00,
2013-03-17 13:03:00,21.0,2.0,30.14,WNW,292,6.0,8.0,46,0.00,,,0.00,TxWx,2013-03-17 17:03:00,
2013-03-17 13:06:00,26.0,6.0,29.95,West,270,8.0,13.0,43,0.00,,,0.00,TxWx,2013-03-17 17:06:00,
2013-03-17 13:11:00,25.0,4.0,29.94,SSW,202,7.0,7.0,43,0.00,,,0.00,TxWx,2013-03-17 17:11:00,
2013-03-17 13:16:00,27.0,6.0,29.94,WSW,247,8.0,8.0,42,0.00,,,0.00,TxWx,2013-03-17 17:16:00,
2013-03-17 13:21:00,26.0,4.0,29.95,West,270,11.0,15.0,41,0.00,,,0.00,TxWx,2013-03-17 17:21:00,
2013-03-17 13:25:00,20.0,2.0,30.14,NW,315,8.0,11.0,47,0.00,,,0.00,TxWx,2013-03-17 17:25:00,
2013-03-17 13:26:00,25.0,4.0,29.96,SW,225,13.0,13.0,43,0.00,,,0.00,TxWx,2013-03-17 17:26:00,
2013-03-17 13:32:00,25.0,5.0,29.95,WNW,292,7.0,7.0,44,0.00,,,0.00,TxWx,2013-03-17 17:32:00,
2013-03-17 13:37:00,25.0,4.0,29.95,NE,45,5.0,6.0,43,0.00,,,0.00,TxWx,2013-03-17 17:37:00,
2013-03-17 13:39:00,20.0,1.0,30.14,NW,315,10.0,13.0,46,0.00,,,0.00,TxWx,2013-03-17 17:39:00,
2013-03-17 13:40:00,20.0,1.0,30.15,NNW,337,8.0,10.0,46,0.00,,,0.00,TxWx,2013-03-17 17:40:00,
2013-03-17 13:42:00,25.0,4.0,29.95,SW,225,11.0,11.0,41,0.00,,,0.00,TxWx,2013-03-17 17:42:00,
2013-03-17 13:47:00,26.0,5.0,29.94,West,270,6.0,9.0,41,0.00,,,0.00,TxWx,2013-03-17 17:47:00,
2013-03-17 13:52:00,27.0,4.0,29.94,West,270,10.0,10.0,38,0.00,,,0.00,TxWx,2013-03-17 17:52:00,
2013-03-17 13:59:00,19.0,1.0,30.16,NNW,337,8.0,10.0,47,0.00,,,0.00,TxWx,2013-03-17 17:59:00,
2013-03-17 14:00:00,27.0,2.0,29.95,West,270,16.0,16.0,35,0.00,,,0.00,TxWx,2013-03-17 18:00:00,
2013-03-17 14:01:00,19.0,1.0,30.16,North,0,7.0,10.0,47,0.00,,,0.00,TxWx,2013-03-17 18:01:00,
2013-03-17 14:02:00,19.0,1.0,30.16,NW,315,5.0,6.0,47,0.00,,,0.00,TxWx,2013-03-17 18:02:00,
2013-03-17 14:03:00,19.0,1.0,30.16,NW,315,3.0,3.0,47,0.00,,,0.00,TxWx,2013-03-17 18:03:00,
2013-03-17 14:06:00,26.0,0.0,29.94,West,270,15.0,15.0,34,0.00,,,0.00,TxWx,2013-03-17 18:06:00,
2013-03-17 14:11:00,27.0,1.0,29.94,West,270,11.0,13.0,34,0.00,,,0.00,TxWx,2013-03-17 18:11:00,
2013-03-17 14:12:00,19.0,1.0,30.16,WNW,292,4.0,7.0,47,0.00,,,0.00,TxWx,2013-03-17 18:12:00,
2013-03-17 14:13:00,19.0,1.0,30.16,NW,315,6.0,6.0,47,0.00,,,0.00,TxWx,2013-03-17 18:13:00,
2013-03-17 14:14:00,19.0,1.0,30.16,NW,315,7.0,7.0,47,0.00,,,0.00,TxWx,2013-03-17 18:14:00,
2013-03-17 14:15:00,19.0,1.0,30.16,WNW,292,6.0,7.0,47,0.00,,,0.00,TxWx,2013-03-17 18:15:00,
2013-03-17 14:16:00,27.0,1.0,29.94,West,270,13.0,13.0,34,0.00,,,0.00,TxWx,2013-03-17 18:16:00,
2013-03-17 14:21:00,27.0,3.0,29.95,WSW,247,6.0,9.0,37,0.00,,,0.00,TxWx,2013-03-17 18:21:00,
2013-03-17 14:26:00,27.0,1.0,29.95,West,270,9.0,10.0,34,0.00,,,0.00,TxWx,2013-03-17 18:26:00,
2013-03-17 14:31:00,26.0,0.0,29.95,WNW,292,8.0,11.0,34,0.00,,,0.00,TxWx,2013-03-17 18:31:00,
2013-03-17 14:36:00,27.0,2.0,29.95,WSW,247,15.0,16.0,35,0.00,,,0.00,TxWx,2013-03-17 18:36:00,
2013-03-17 14:37:00,19.0,2.0,30.16,NNW,337,11.0,13.0,49,0.00,,,0.00,TxWx,2013-03-17 18:37:00,
2013-03-17 14:38:00,19.0,2.0,30.16,NW,315,11.0,11.0,49,0.00,,,0.00,TxWx,2013-03-17 18:38:00,
2013-03-17 14:39:00,19.0,2.0,30.16,NW,315,6.0,7.0,49,0.00,,,0.00,TxWx,2013-03-17 18:39:00,
2013-03-17 14:41:00,28.0,3.0,29.95,West,270,7.0,9.0,35,0.00,,,0.00,TxWx,2013-03-17 18:41:00,
2013-03-17 14:46:00,28.0,2.0,29.95,SW,225,10.0,15.0,34,0.00,,,0.00,TxWx,2013-03-17 18:46:00,
2013-03-17 14:47:00,19.0,2.0,30.16,NE,45,8.0,8.0,49,0.00,,,0.00,TxWx,2013-03-17 18:47:00,
2013-03-17 14:51:00,27.0,1.0,29.95,West,270,11.0,16.0,33,0.00,,,0.00,TxWx,2013-03-17 18:51:00,
2013-03-17 14:56:00,27.0,1.0,29.95,WNW,292,11.0,13.0,34,0.00,,,0.00,TxWx,2013-03-17 18:56:00,
2013-03-17 15:01:00,18.0,0.0,30.16,NNE,22,7.0,9.0,48,0.00,,,0.00,TxWx,2013-03-17 19:01:00,
2013-03-17 15:02:00,28.0,3.0,29.95,NW,315,7.0,10.0,35,0.00,,,0.00,TxWx,2013-03-17 19:02:00,
2013-03-17 15:07:00,28.0,2.0,29.95,West,270,7.0,7.0,34,0.00,,,0.00,TxWx,2013-03-17 19:07:00,
2013-03-17 15:12:00,27.0,1.0,29.95,West,270,12.0,13.0,34,0.00,,,0.00,TxWx,2013-03-17 19:12:00,
2013-03-17 15:17:00,27.0,1.0,29.95,WSW,247,14.0,16.0,34,0.00,,,0.00,TxWx,2013-03-17 19:17:00,
2013-03-17 15:22:00,28.0,2.0,29.96,WNW,292,14.0,16.0,34,0.00,,,0.00,TxWx,2013-03-17 19:22:00,
2013-03-17 15:26:00,18.0,1.0,30.18,North,0,4.0,8.0,49,0.00,,,0.00,TxWx,2013-03-17 19:26:00,
2013-03-17 15:27:00,28.0,2.0,29.96,West,270,10.0,16.0,34,0.00,,,0.00,TxWx,2013-03-17 19:27:00,
2013-03-17 15:28:00,18.0,1.0,30.18,NNW,337,8.0,8.0,49,0.00,,,0.00,TxWx,2013-03-17 19:28:00,
2013-03-17 15:29:00,18.0,1.0,30.18,North,0,13.0,13.0,49,0.00,,,0.00,TxWx,2013-03-17 19:29:00,
2013-03-17 15:30:00,18.0,1.0,30.17,NE,45,7.0,12.0,49,0.00,,,0.00,TxWx,2013-03-17 19:30:00,
2013-03-17 15:31:00,18.0,1.0,30.17,North,0,6.0,7.0,50,0.00,,,0.00,TxWx,2013-03-17 19:31:00,
2013-03-17 15:32:00,18.0,1.0,30.17,NNW,337,8.0,11.0,50,0.00,,,0.00,TxWx,2013-03-17 19:32:00,
2013-03-17 15:33:00,18.0,1.0,30.17,NNW,337,8.0,10.0,50,0.00,,,0.00,TxWx,2013-03-17 19:33:00,
2013-03-17 15:34:00,18.0,1.0,30.17,North,0,8.0,10.0,50,0.00,,,0.00,TxWx,2013-03-17 19:34:00,
2013-03-17 15:35:00,28.0,2.0,29.96,West,270,8.0,16.0,33,0.00,,,0.00,TxWx,2013-03-17 19:35:00,
2013-03-17 15:41:00,28.0,2.0,29.96,West,270,11.0,11.0,33,0.00,,,0.00,TxWx,2013-03-17 19:41:00,
2013-03-17 15:46:00,29.0,2.0,29.97,West,270,10.0,10.0,33,0.00,,,0.00,TxWx,2013-03-17 19:46:00,
2013-03-17 15:51:00,28.0,1.0,29.96,WSW,247,12.0,12.0,33,0.00,,,0.00,TxWx,2013-03-17 19:51:00,
2013-03-17 15:56:00,29.0,3.0,29.96,West,270,8.0,9.0,34,0.00,,,0.00,TxWx,2013-03-17 19:56:00,
2013-03-17 16:01:00,29.0,3.0,29.96,West,270,17.0,19.0,34,0.00,,,0.00,TxWx,2013-03-17 20:01:00,
2013-03-17 16:06:00,29.0,3.0,29.96,SW,225,7.0,12.0,34,0.00,,,0.00,TxWx,2013-03-17 20:06:00,
2013-03-17 16:11:00,30.0,3.0,29.96,WSW,247,21.0,21.0,33,0.00,,,0.00,TxWx,2013-03-17 20:11:00,
2013-03-17 16:16:00,29.0,2.0,29.97,West,270,7.0,11.0,33,0.00,,,0.00,TxWx,2013-03-17 20:16:00,
2013-03-17 16:21:00,29.0,2.0,29.97,West,270,6.0,8.0,33,0.00,,,0.00,TxWx,2013-03-17 20:21:00,
2013-03-17 16:24:00,17.0,0.0,30.19,NNW,337,9.0,11.0,50,0.00,,,0.00,TxWx,2013-03-17 20:24:00,
2013-03-17 16:25:00,17.0,0.0,30.19,NNW,337,6.0,10.0,50,0.00,,,0.00,TxWx,2013-03-17 20:25:00,
2013-03-17 16:26:00,28.0,1.0,29.97,West,270,13.0,13.0,33,0.00,,,0.00,TxWx,2013-03-17 20:26:00,
2013-03-17 16:32:00,29.0,2.0,29.97,West,270,11.0,11.0,33,0.00,,,0.00,TxWx,2013-03-17 20:32:00,
2013-03-17 16:37:00,28.0,1.0,29.97,NW,315,11.0,19.0,33,0.00,,,0.00,TxWx,2013-03-17 20:37:00,
2013-03-17 16:42:00,29.0,2.0,29.97,West,270,10.0,10.0,33,0.00,,,0.00,TxWx,2013-03-17 20:42:00,
2013-03-17 16:47:00,29.0,2.0,29.97,WNW,292,11.0,11.0,33,0.00,,,0.00,TxWx,2013-03-17 20:47:00,
2013-03-17 16:55:00,29.0,2.0,29.99,WSW,247,11.0,11.0,33,0.00,,,0.00,TxWx,2013-03-17 20:55:00,
2013-03-17 16:56:00,17.0,0.0,30.19,NNE,22,6.0,7.0,49,0.00,,,0.00,TxWx,2013-03-17 20:56:00,
2013-03-17 16:57:00,17.0,0.0,30.19,North,0,12.0,13.0,49,0.00,,,0.00,TxWx,2013-03-17 20:57:00,
2013-03-17 16:58:00,17.0,0.0,30.19,NNE,22,11.0,13.0,49,0.00,,,0.00,TxWx,2013-03-17 20:58:00,
2013-03-17 16:59:00,17.0,0.0,30.19,NE,45,6.0,8.0,49,0.00,,,0.00,TxWx,2013-03-17 20:59:00,
2013-03-17 17:00:00,29.0,2.0,29.99,SW,225,10.0,10.0,33,0.00,,,0.00,TxWx,2013-03-17 21:00:00,
2013-03-17 17:05:00,28.0,1.0,29.99,West,270,10.0,13.0,33,0.00,,,0.00,TxWx,2013-03-17 21:05:00,
2013-03-17 17:10:00,29.0,2.0,29.99,SW,225,8.0,11.0,33,0.00,,,0.00,TxWx,2013-03-17 21:10:00,
2013-03-17 17:11:00,17.0,0.0,30.20,NNE,22,7.0,10.0,48,0.00,,,0.00,TxWx,2013-03-17 21:11:00,
2013-03-17 17:12:00,17.0,0.0,30.20,NNE,22,6.0,9.0,48,0.00,,,0.00,TxWx,2013-03-17 21:12:00,
2013-03-17 17:13:00,17.0,-1.0,30.20,NNE,22,8.0,8.0,48,0.00,,,0.00,TxWx,2013-03-17 21:13:00,
2013-03-17 17:14:00,17.0,-1.0,30.20,NNE,22,8.0,8.0,48,0.00,,,0.00,TxWx,2013-03-17 21:14:00,
2013-03-17 17:15:00,29.0,2.0,29.99,West,270,12.0,12.0,33,0.00,,,0.00,TxWx,2013-03-17 21:15:00,
2013-03-17 17:20:00,29.0,2.0,29.99,West,270,10.0,10.0,33,0.00,,,0.00,TxWx,2013-03-17 21:20:00,
2013-03-17 17:21:00,17.0,0.0,30.20,NNE,22,8.0,8.0,48,0.00,,,0.00,TxWx,2013-03-17 21:21:00,
2013-03-17 17:22:00,17.0,0.0,30.20,NE,45,4.0,4.0,48,0.00,,,0.00,TxWx,2013-03-17 21:22:00,
2013-03-17 17:23:00,17.0,0.0,30.20,NNE,22,9.0,10.0,48,0.00,,,0.00,TxWx,2013-03-17 21:23:00,
2013-03-17 17:24:00,17.0,0.0,30.20,NE,45,7.0,8.0,48,0.00,,,0.00,TxWx,2013-03-17 21:24:00,
2013-03-17 17:25:00,29.0,2.0,29.99,WNW,292,8.0,13.0,33,0.00,,,0.00,TxWx,2013-03-17 21:25:00,
2013-03-17 17:30:00,28.0,1.0,30.00,West,270,13.0,14.0,33,0.00,,,0.00,TxWx,2013-03-17 21:30:00,
2013-03-17 17:36:00,28.0,1.0,30.00,West,270,11.0,11.0,33,0.00,,,0.00,TxWx,2013-03-17 21:36:00,
2013-03-17 17:41:00,28.0,2.0,30.00,WSW,247,16.0,16.0,33,0.00,,,0.00,TxWx,2013-03-17 21:41:00,
2013-03-17 17:46:00,29.0,2.0,30.00,WNW,292,13.0,13.0,33,0.00,,,0.00,TxWx,2013-03-17 21:46:00,
2013-03-17 17:51:00,28.0,1.0,30.00,West,270,11.0,14.0,33,0.00,,,0.00,TxWx,2013-03-17 21:51:00,
2013-03-17 17:56:00,28.0,1.0,30.00,SW,225,11.0,11.0,33,0.00,,,0.00,TxWx,2013-03-17 21:56:00,
2013-03-17 18:01:00,28.0,2.0,30.00,WSW,247,8.0,8.0,34,0.00,,,0.00,TxWx,2013-03-17 22:01:00,
2013-03-17 18:10:00,28.0,2.0,30.01,NW,315,8.0,10.0,34,0.00,,,0.00,TxWx,2013-03-17 22:10:00,
2013-03-17 18:15:00,28.0,3.0,30.01,SW,225,8.0,10.0,36,0.00,,,0.00,TxWx,2013-03-17 22:15:00,
2013-03-17 18:20:00,28.0,4.0,30.01,SW,225,8.0,11.0,37,0.00,,,0.00,TxWx,2013-03-17 22:20:00,
2013-03-17 18:21:00,17.0,-1.0,30.19,NE,45,4.0,5.0,46,0.00,,,0.00,TxWx,2013-03-17 22:21:00,
2013-03-17 18:22:00,17.0,-1.0,30.19,NNE,22,8.0,8.0,46,0.00,,,0.00,TxWx,2013-03-17 22:22:00,
2013-03-17 18:23:00,17.0,-1.0,30.19,North,0,3.0,4.0,46,0.00,,,0.00,TxWx,2013-03-17 22:23:00,
2013-03-17 18:24:00,17.0,-1.0,30.19,NNE,22,5.0,7.0,46,0.00,,,0.00,TxWx,2013-03-17 22:24:00,
2013-03-17 18:25:00,28.0,4.0,30.01,West,270,5.0,8.0,37,0.00,,,0.00,TxWx,2013-03-17 22:25:00,
2013-03-17 18:30:00,28.0,3.0,30.01,West,270,11.0,11.0,35,0.00,,,0.00,TxWx,2013-03-17 22:30:00,
2013-03-17 18:35:00,27.0,2.0,30.02,West,270,7.0,7.0,35,0.00,,,0.00,TxWx,2013-03-17 22:35:00,
2013-03-17 18:40:00,27.0,3.0,30.02,SSW,202,4.0,6.0,37,0.00,,,0.00,TxWx,2013-03-17 22:40:00,
2013-03-17 18:45:00,27.0,4.0,30.03,West,270,6.0,8.0,38,0.00,,,0.00,TxWx,2013-03-17 22:45:00,
2013-03-17 18:50:00,27.0,4.0,30.03,WNW,292,5.0,6.0,39,0.00,,,0.00,TxWx,2013-03-17 22:50:00,
2013-03-17 18:55:00,27.0,5.0,30.03,WSW,247,8.0,13.0,40,0.00,,,0.00,TxWx,2013-03-17 22:55:00,
2013-03-17 19:01:00,26.0,4.0,30.03,SW,225,11.0,12.0,40,0.00,,,0.00,TxWx,2013-03-17 23:01:00,
2013-03-17 19:06:00,26.0,4.0,30.04,SW,225,6.0,8.0,40,0.00,,,0.00,TxWx,2013-03-17 23:06:00,
2013-03-17 19:07:00,17.0,-1.0,30.20,NE,45,7.0,7.0,46,0.00,,,0.00,TxWx,2013-03-17 23:07:00,
2013-03-17 19:08:00,17.0,-1.0,30.20,NE,45,6.0,7.0,46,0.00,,,0.00,TxWx,2013-03-17 23:08:00,
2013-03-17 19:09:00,17.0,-1.0,30.20,NE,45,6.0,7.0,46,0.00,,,0.00,TxWx,2013-03-17 23:09:00,
2013-03-17 19:10:00,17.0,-1.0,30.20,NE,45,5.0,8.0,46,0.00,,,0.00,TxWx,2013-03-17 23:10:00,
2013-03-17 19:11:00,26.0,4.0,30.04,SSW,202,12.0,12.0,41,0.00,,,0.00,TxWx,2013-03-17 23:11:00,
2013-03-17 19:16:00,26.0,4.0,30.04,West,270,5.0,6.0,41,0.00,,,0.00,TxWx,2013-03-17 23:16:00,
2013-03-17 19:21:00,26.0,5.0,30.05,West,270,10.0,16.0,41,0.00,,,0.00,TxWx,2013-03-17 23:21:00,
2013-03-17 19:27:00,25.0,4.0,30.05,West,270,13.0,13.0,42,0.00,,,0.00,TxWx,2013-03-17 23:27:00,
2013-03-17 19:33:00,25.0,4.0,30.05,West,270,8.0,11.0,42,0.00,,,0.00,TxWx,2013-03-17 23:33:00,
2013-03-17 19:38:00,25.0,4.0,30.06,West,270,11.0,19.0,43,0.00,,,0.00,TxWx,2013-03-17 23:38:00,
2013-03-17 19:43:00,25.0,5.0,30.05,SW,225,10.0,12.0,43,0.00,,,0.00,TxWx,2013-03-17 23:43:00,
2013-03-17 19:48:00,25.0,5.0,30.06,West,270,9.0,10.0,43,0.00,,,0.00,TxWx,2013-03-17 23:48:00,
2013-03-17 19:53:00,25.0,5.0,30.06,West,270,5.0,10.0,43,0.00,,,0.00,TxWx,2013-03-17 23:53:00,
2013-03-17 19:59:00,24.0,4.0,30.06,West,270,11.0,11.0,43,0.00,,,0.00,TxWx,2013-03-17 23:59:00,
2013-03-17 20:04:00,25.0,5.0,30.07,SW,225,9.0,9.0,44,0.00,,,0.00,TxWx,2013-03-18 00:04:00,
2013-03-17 20:09:00,24.0,4.0,30.07,SW,225,7.0,11.0,44,0.00,,,0.00,TxWx,2013-03-18 00:09:00,
2013-03-17 20:11:00,17.0,-2.0,30.21,NNE,22,6.0,6.0,44,0.00,,,0.00,TxWx,2013-03-18 00:11:00,
2013-03-17 20:12:00,17.0,-2.0,30.21,NE,45,7.0,8.0,44,0.00,,,0.00,TxWx,2013-03-18 00:12:00,
2013-03-17 20:13:00,17.0,-2.0,30.21,NE,45,8.0,10.0,44,0.00,,,0.00,TxWx,2013-03-18 00:13:00,
2013-03-17 20:14:00,24.0,4.0,30.07,WNW,292,6.0,10.0,44,0.00,,,0.00,TxWx,2013-03-18 00:14:00,
2013-03-17 20:15:00,17.0,-2.0,30.21,NNE,22,5.0,5.0,44,0.00,,,0.00,TxWx,2013-03-18 00:15:00,
2013-03-17 20:19:00,24.0,4.0,30.08,West,270,5.0,6.0,44,0.00,,,0.00,TxWx,2013-03-18 00:19:00,
2013-03-17 20:24:00,24.0,4.0,30.08,West,270,13.0,16.0,44,0.00,,,0.00,TxWx,2013-03-18 00:24:00,
2013-03-17 20:29:00,24.0,4.0,30.08,WSW,247,8.0,8.0,44,0.00,,,0.00,TxWx,2013-03-18 00:29:00,
2013-03-17 20:34:00,24.0,4.0,30.08,NW,315,6.0,6.0,45,0.00,,,0.00,TxWx,2013-03-18 00:34:00,
2013-03-17 20:39:00,24.0,4.0,30.09,West,270,8.0,10.0,45,0.00,,,0.00,TxWx,2013-03-18 00:39:00,
2013-03-17 20:44:00,24.0,4.0,30.09,West,270,10.0,11.0,45,0.00,,,0.00,TxWx,2013-03-18 00:44:00,
2013-03-17 20:49:00,24.0,4.0,30.09,West,270,7.0,12.0,45,0.00,,,0.00,TxWx,2013-03-18 00:49:00,
2013-03-17 20:54:00,24.0,5.0,30.09,WSW,247,10.0,11.0,45,0.00,,,0.00,TxWx,2013-03-18 00:54:00,
2013-03-17 20:59:00,23.0,4.0,30.10,NW,315,5.0,6.0,45,0.00,,,0.00,TxWx,2013-03-18 00:59:00,
2013-03-17 21:04:00,23.0,4.0,30.10,WNW,292,6.0,6.0,45,0.00,,,0.00,TxWx,2013-03-18 01:04:00,
2013-03-17 21:10:00,23.0,4.0,30.10,WNW,292,6.0,6.0,46,0.00,,,0.00,TxWx,2013-03-18 01:10:00,
2013-03-17 21:15:00,23.0,4.0,30.10,WNW,292,5.0,7.0,46,0.00,,,0.00,TxWx,2013-03-18 01:15:00,
2013-03-17 21:20:00,23.0,4.0,30.11,NNW,337,4.0,5.0,46,0.00,,,0.00,TxWx,2013-03-18 01:20:00,
2013-03-17 21:25:00,23.0,4.0,30.11,WNW,292,5.0,5.0,46,0.00,,,0.00,TxWx,2013-03-18 01:25:00,
2013-03-17 21:30:00,23.0,4.0,30.12,WNW,292,8.0,8.0,46,0.00,,,0.00,TxWx,2013-03-18 01:30:00,
2013-03-17 21:35:00,23.0,4.0,30.12,NNW,337,5.0,8.0,46,0.00,,,0.00,TxWx,2013-03-18 01:35:00,
2013-03-17 21:40:00,23.0,4.0,30.12,North,0,6.0,6.0,45,0.00,,,0.00,TxWx,2013-03-18 01:40:00,
2013-03-17 21:45:00,23.0,3.0,30.12,NNW,337,7.0,8.0,44,0.00,,,0.00,TxWx,2013-03-18 01:45:00,
2013-03-17 21:51:00,23.0,3.0,30.12,WNW,292,8.0,10.0,43,0.00,,,0.00,TxWx,2013-03-18 01:51:00,
2013-03-17 21:56:00,22.0,2.0,30.13,NW,315,9.0,9.0,43,0.00,,,0.00,TxWx,2013-03-18 01:56:00,
2013-03-17 22:01:00,22.0,2.0,30.13,WNW,292,8.0,8.0,44,0.00,,,0.00,TxWx,2013-03-18 02:01:00,
2013-03-17 22:06:00,22.0,2.0,30.13,NW,315,7.0,7.0,44,0.00,,,0.00,TxWx,2013-03-18 02:06:00,
2013-03-17 22:11:00,22.0,2.0,30.14,NNW,337,6.0,6.0,44,0.00,,,0.00,TxWx,2013-03-18 02:11:00,
2013-03-17 22:16:00,22.0,3.0,30.14,NW,315,5.0,5.0,45,0.00,,,0.00,TxWx,2013-03-18 02:16:00,
2013-03-17 22:21:00,22.0,3.0,30.13,NW,315,8.0,11.0,45,0.00,,,0.00,TxWx,2013-03-18 02:21:00,
2013-03-17 22:26:00,22.0,3.0,30.13,WNW,292,5.0,8.0,45,0.00,,,0.00,TxWx,2013-03-18 02:26:00,
2013-03-17 22:27:00,19.0,0.0,30.25,SSW,202,1.0,1.0,45,0.00,,,0.00,TxWx,2013-03-18 02:27:00,
2013-03-17 22:31:00,22.0,3.0,30.13,NNW,337,5.0,5.0,46,0.00,,,0.00,TxWx,2013-03-18 02:31:00,
2013-03-17 22:36:00,21.0,2.0,30.14,WNW,292,6.0,6.0,46,0.00,,,0.00,TxWx,2013-03-18 02:36:00,
2013-03-17 22:41:00,21.0,2.0,30.14,NNW,337,8.0,8.0,46,0.00,,,0.00,TxWx,2013-03-18 02:41:00,
2013-03-17 22:46:00,21.0,2.0,30.14,NW,315,6.0,7.0,45,0.00,,,0.00,TxWx,2013-03-18 02:46:00,
2013-03-17 22:51:00,19.0,2.0,30.25,West,270,2.0,2.0,49,0.00,,,0.00,TxWx,2013-03-18 02:51:00,
2013-03-17 22:52:00,21.0,2.0,30.13,NW,315,6.0,14.0,45,0.00,,,0.00,TxWx,2013-03-18 02:52:00,
2013-03-17 22:53:00,18.0,2.0,30.25,NW,315,2.0,3.0,51,0.00,,,0.00,TxWx,2013-03-18 02:53:00,
2013-03-17 22:54:00,18.0,2.0,30.25,NW,315,2.0,3.0,52,0.00,,,0.00,TxWx,2013-03-18 02:54:00,
2013-03-17 22:57:00,21.0,2.0,30.13,WNW,292,6.0,9.0,46,0.00,,,0.00,TxWx,2013-03-18 02:57:00,
2013-03-17 23:03:00,21.0,2.0,30.14,NNW,337,11.0,14.0,46,0.00,,,0.00,TxWx,2013-03-18 03:03:00,
2013-03-17 23:08:00,20.0,2.0,30.14,NW,315,8.0,8.0,46,0.00,,,0.00,TxWx,2013-03-18 03:08:00,
2013-03-17 23:13:00,21.0,3.0,30.14,North,0,5.0,6.0,47,0.00,,,0.00,TxWx,2013-03-18 03:13:00,
2013-03-17 23:18:00,21.0,2.0,30.14,NNW,337,7.0,8.0,46,0.00,,,0.00,TxWx,2013-03-18 03:18:00,
2013-03-17 23:24:00,20.0,2.0,30.14,North,0,10.0,10.0,47,0.00,,,0.00,TxWx,2013-03-18 03:24:00,
2013-03-17 23:29:00,20.0,2.0,30.14,NW,315,10.0,11.0,46,0.00,,,0.00,TxWx,2013-03-18 03:29:00,
2013-03-17 23:34:00,20.0,1.0,30.14,NNW,337,10.0,13.0,46,0.00,,,0.00,TxWx,2013-03-18 03:34:00,
2013-03-17 23:39:00,20.0,2.0,30.15,NNW,337,10.0,11.0,46,0.00,,,0.00,TxWx,2013-03-18 03:39:00,
2013-03-17 23:44:00,20.0,1.0,30.14,NW,315,11.0,11.0,46,0.00,,,0.00,TxWx,2013-03-18 03:44:00,
2013-03-17 23:46:00,19.0,3.0,30.23,NW,315,4.0,4.0,52,0.00,,,0.00,TxWx,2013-03-18 03:46:00,
2013-03-17 23:47:00,20.0,4.0,30.23,West,270,4.0,5.0,53,0.00,,,0.00,TxWx,2013-03-18 03:47:00,
2013-03-17 23:48:00,20.0,4.0,30.23,West,270,1.0,3.0,52,0.00,,,0.00,TxWx,2013-03-18 03:48:00,
2013-03-17 23:49:00,20.0,1.0,30.15,NNW,337,10.0,10.0,46,0.00,,,0.00,TxWx,2013-03-18 03:49:00,
2013-03-17 23:50:00,20.0,4.0,30.23,NW,315,3.0,3.0,52,0.00,,,0.00,TxWx,2013-03-18 03:50:00,
2013-03-17 23:54:00,19.0,1.0,30.15,WNW,292,4.0,7.0,46,0.00,,,0.00,TxWx,2013-03-18 03:54:00,
2013-03-17 23:59:00,20.0,2.0,30.15,NW,315,8.0,8.0,46,0.00,,,0.00,TxWx,2013-03-18 03:59:00,